Location: Hilde
(52.9479°N, 6.4449°E)
Time: 07:28:57
(UTC+00:00)

Cosmos 1842 - Pass Details

Date: 15 May 2026
Orbit: 395 x 399 km, 82.5° (Epoch: 5 June)

Event Time Altitude Azimuth Distance (km) Brightness Sun altitude
Exits shadow 21:57:16 28° 113° (ESE) 785 3.7 -15.2°
Maximum altitude 21:57:47 30° 93° (E) 750 3.8 -15.3°
Drops below altitude 10° 22:00:35 10° 30° (NNE) 1,453 6.0 -15.4°
Sets 22:02:44 0° 19° (NNE) 2,317 7.3 -15.5°
